Theta_e
326 326 326 326 325 325 325 325 325 326 325 325 325 325 325 324 323 323 323 322 322 322 322 322 322 322 322 322 322 322 322 322 323 323 323 323 323 323 323 323 322 322 322 322 322 321 320 320 322 323 322 321 321 321 321 321 322 323 323 323 323 322 323 323 323 323 323 323 323 323 323 324 324 324 324 323 323 323 322 322 321 321 320 319 319
326 326 326 326 326 326 326 326 326 326 326 326 326 325 324 322 321 321 321 321 321 321 321 321 320 320 320 321 320 320 320 321 321 322 322 322 323 323 323 322 321 321 321 321 321 320 319 319 320 322 322 322 322 321 321 321 322 322 322 322 322 322 322 322 323 322 322 323 323 324 323 324 324 324 323 323 324 324 323 323 322 322 321 321 320
326 326 326 326 326 326 326 326 326 326 326 326 326 325 323 322 321 321 321 321 321 321 321 321 320 319 319 319 319 320 321 320 319 319 319 321 322 322 321 320 319 320 320 320 320 319 320 320 321 322 322 322 322 321 321 321 321 322 322 322 322 322 322 322 322 323 323 323 323 324 323 323 323 324 323 323 323 324 324 324 323 323 323 322 321
325 325 325 325 325 325 325 325 325 325 325 325 325 324 323 322 322 322 322 321 321 320 320 320 320 319 320 319 318 318 320 320 319 318 319 320 321 321 320 319 319 320 320 320 320 321 322 322 322 322 321 321 321 321 321 322 322 322 322 322 322 322 321 322 322 323 323 323 323 323 323 323 323 323 323 323 323 323 323 323 323 323 323 322 322
324 325 325 325 325 325 325 324 324 324 324 324 324 324 323 322 322 321 321 321 320 320 319 320 319 320 320 319 317 317 318 319 320 320 319 319 319 319 318 318 319 320 320 320 320 321 322 322 321 321 320 319 320 320 321 322 322 322 322 322 322 322 322 322 322 322 322 322 322 323 323 323 323 322 322 323 322 322 322 322 322 322 322 322 322
324 325 325 325 324 324 323 322 322 322 322 322 322 322 321 321 321 320 320 320 320 318 318 319 319 320 319 318 318 318 318 320 321 321 319 319 319 318 318 319 320 320 320 320 319 319 319 320 320 319 318 317 318 319 320 321 321 321 321 321 321 321 322 322 321 321 321 321 321 321 322 322 322 321 321 321 321 322 321 321 321 322 322 322 322
324 325 325 324 323 322 322 321 321 320 319 319 319 319 319 318 319 319 319 320 320 319 319 320 320 320 318 318 319 319 320 321 322 322 321 319 319 319 320 320 319 319 319 318 317 317 317 317 317 318 317 316 316 316 317 318 319 320 320 320 320 320 321 321 321 320 320 320 320 320 320 321 321 321 321 321 321 321 321 321 320 321 321 321 321
324 325 325 324 323 323 322 321 321 321 320 319 319 319 319 318 319 319 319 319 320 320 320 320 320 320 319 318 318 318 319 319 320 322 322 320 320 320 319 318 317 317 317 316 315 315 314 315 316 316 316 316 315 315 314 315 315 316 316 317 317 317 317 317 318 318 318 317 318 319 319 319 319 320 320 320 320 320 320 321 321 321 321 321 321
324 324 325 324 324 324 323 322 323 323 322 321 320 321 321 319 319 319 319 319 320 320 320 321 321 321 320 320 318 317 318 318 318 319 320 319 319 318 316 316 316 316 315 314 312 312 312 313 313 313 312 313 313 312 312 312 312 312 312 313 313 313 313 313 314 314 314 314 315 316 316 316 316 317 318 318 319 319 319 320 320 320 320 321 321
325 325 325 324 324 324 324 324 324 324 323 322 322 323 323 320 319 320 320 320 320 320 321 322 322 321 322 323 321 318 318 319 317 316 317 317 316 315 315 315 314 314 312 311 310 310 310 310 309 309 309 308 308 308 308 308 309 309 309 309 309 308 308 307 307 307 307 307 307 307 307 307 309 311 313 314 315 316 317 317 318 318 319 319 319
325 325 325 325 325 324 324 324 324 324 323 322 323 324 324 321 320 321 322 321 320 321 322 322 321 323 325 325 324 319 317 317 316 315 315 314 314 314 313 312 311 311 309 308 308 308 307 305 305 304 304 303 303 303 303 303 303 303 303 302 301 301 300 300 299 299 299 299 299 298 298 299 300 302 303 303 305 308 310 312 315 316 316 317 317
325 325 325 325 325 325 324 325 324 324 324 324 324 324 323 321 321 321 322 322 321 321 322 322 323 325 325 324 322 317 315 315 315 314 313 312 312 311 311 310 309 308 306 305 305 304 303 302 301 301 300 300 300 299 299 299 299 298 298 297 297 297 297 297 297 297 297 297 297 297 297 297 297 297 297 297 298 298 299 302 308 312 314 314 315
324 325 325 325 325 325 324 324 325 324 324 324 324 323 323 322 321 321 322 323 321 321 323 323 324 323 320 318 317 314 314 314 313 313 312 311 310 309 309 308 307 305 304 303 302 302 301 300 300 299 299 299 299 298 298 298 297 297 297 297 297 297 296 296 296 296 296 296 296 296 296 296 296 296 296 296 296 296 297 296 300 304 305 306 308
324 324 324 324 323 323 324 324 324 323 322 323 323 323 323 321 321 323 323 320 320 322 323 323 322 319 317 316 314 313 314 313 312 311 311 310 309 308 307 306 305 304 303 302 301 301 300 300 299 299 299 299 298 298 298 297 297 297 297 296 296 296 296 296 296 296 296 296 296 296 296 296 296 296 296 296 296 296 296 296 297 299 297 297 299
324 323 322 322 321 322 323 323 323 322 322 323 322 322 321 320 322 325 322 318 319 321 321 321 321 319 319 317 314 312 313 312 311 311 310 309 308 307 306 305 304 303 302 301 300 300 300 299 299 298 298 298 298 297 297 297 296 296 296 296 296 296 296 296 296 296 296 296 296 296 296 296 296 296 296 296 296 296 296 296 296 296 296 296 296
324 323 321 320 322 323 322 322 324 323 323 324 322 321 320 320 321 322 320 320 321 320 319 320 321 319 318 317 316 314 313 311 310 310 310 308 307 306 305 304 303 302 301 300 299 299 299 299 298 298 298 297 297 297 296 296 296 296 296 296 296 296 296 296 296 296 296 296 296 296 296 296 296 296 296 296 296 296 296 296 296 296 296 296 296
323 324 324 321 322 322 320 323 327 325 326 327 323 320 319 320 321 321 322 323 324 323 320 318 317 316 315 316 316 315 313 311 310 310 309 307 307 306 305 304 302 301 301 300 299 299 299 299 298 298 297 297 297 296 296 296 296 296 296 296 296 296 296 296 296 296 296 296 296 296 296 296 296 296 296 296 296 296 295 295 295 295 295 295 297
323 324 326 323 324 324 322 324 326 325 327 327 323 320 319 322 324 324 325 325 324 323 320 317 315 313 313 314 313 313 312 311 311 310 307 305 304 303 302 302 300 300 300 299 299 299 299 298 298 297 297 297 296 296 296 296 296 296 295 296 296 295 296 296 296 296 296 296 296 296 296 296 296 295 295 295 295 295 295 295 295 295 295 295 297
321 322 322 323 328 328 322 321 321 321 323 325 324 321 319 322 326 326 327 326 322 319 317 317 315 312 310 311 310 310 310 310 310 307 303 302 301 300 299 299 299 298 298 298 298 298 298 298 297 297 296 296 296 296 296 296 296 296 295 295 295 295 296 296 296 296 295 296 295 295 295 295 295 295 295 295 295 295 295 295 295 295 294 294 295
321 320 318 321 329 327 321 322 323 322 322 325 325 322 320 323 324 324 323 321 318 315 314 314 312 310 309 308 308 308 307 306 305 302 299 299 299 299 298 298 298 298 297 297 297 297 297 297 297 296 296 296 295 295 295 295 295 295 295 295 295 295 295 295 295 295 295 295 295 295 295 295 295 295 295 295 295 295 294 294 294 294 294 293 293
321 320 318 320 323 322 323 327 328 326 323 322 321 321 322 321 318 318 317 315 314 313 311 310 308 308 307 306 305 304 304 302 300 298 297 297 298 298 298 298 299 298 297 297 296 296 296 296 296 295 295 295 295 295 295 295 295 295 295 295 295 295 295 295 295 295 295 295 295 295 294 294 294 294 294 294 294 294 294 294 293 293 293 293 293
322 321 320 320 319 319 325 329 328 327 323 318 317 319 320 317 315 316 315 313 312 310 308 307 306 306 305 305 304 302 301 300 299 298 297 297 297 298 297 297 298 297 297 297 296 296 296 295 295 295 295 295 295 295 295 295 295 294 294 294 294 294 294 294 294 294 294 294 294 293 293 293 293 293 293 293 293 293 293 292 292 292 292 292 292
323 322 322 322 319 318 322 325 326 325 319 316 316 317 316 315 314 313 312 311 309 307 306 306 305 305 304 304 303 301 300 299 298 298 297 297 297 298 297 297 297 297 297 297 296 295 295 295 295 295 295 295 294 294 294 294 294 294 294 294 294 294 294 294 294 293 293 293 293 293 292 292 292 292 292 292 292 292 292 292 292 293 293 294 294
323 323 322 321 319 317 318 319 320 320 318 317 316 314 313 312 311 310 309 307 306 306 305 305 305 305 303 302 300 299 298 298 298 297 297 297 297 297 297 296 297 297 297 296 296 295 295 295 294 294 294 294 294 294 293 294 293 293 294 294 294 294 293 293 293 293 293 292 292 292 292 292 291 291 291 291 291 291 292 294 294 295 295 295 295
323 323 322 320 318 317 317 316 317 317 317 316 314 312 311 310 310 308 307 305 305 305 306 305 305 303 302 300 298 298 298 297 297 297 297 297 296 296 296 296 296 296 296 296 295 295 294 294 294 294 294 294 293 293 293 293 294 293 293 294 293 293 293 293 292 292 292 291 291 291 291 291 291 290 290 291 291 292 293 294 294 294 294 294 294
323 322 321 319 318 317 317 316 316 315 314 313 312 311 310 309 308 306 305 305 305 305 305 304 303 301 299 298 298 298 297 297 297 297 296 296 296 296 296 296 296 296 296 295 295 294 294 294 294 294 294 293 293 293 293 294 293 293 293 293 293 292 292 292 291 291 290 290 290 290 290 290 290 289 289 290 291 291 292 293 293 293 293 293 293
322 322 320 318 317 316 316 315 313 312 312 311 311 310 309 307 305 305 305 305 305 305 304 303 301 299 298 298 297 297 297 297 297 296 296 296 296 295 295 295 295 295 295 294 294 294 294 294 294 293 293 293 293 293 293 293 293 293 292 292 292 291 291 291 290 290 290 289 289 290 289 289 289 288 288 289 290 290 291 291 292 292 292 292 292
322 322 319 317 317 315 315 313 312 311 311 311 310 309 307 305 304 304 305 305 305 305 303 301 299 298 298 297 297 297 297 296 296 296 296 295 295 295 295 294 294 294 294 294 294 294 294 293 293 293 292 292 292 292 292 292 292 292 292 291 291 291 291 290 290 289 289 289 289 289 289 289 288 288 288 288 289 289 290 290 290 291 291 291 291
322 321 318 319 319 316 314 313 311 311 311 310 309 307 305 304 304 304 305 305 304 303 301 300 298 298 297 297 297 296 296 296 296 296 295 295 295 294 294 294 294 294 294 294 293 293 293 293 293 293 293 292 292 292 292 292 292 291 291 291 291 291 290 290 289 289 289 289 289 289 289 288 287 287 287 288 288 289 289 289 290 290 290 291 291
320 318 317 319 319 315 314 312 311 311 310 309 308 305 303 303 304 304 304 304 303 301 299 298 297 297 297 296 296 296 296 296 295 295 295 295 294 294 294 294 294 294 293 293 293 293 293 293 293 293 293 292 292 292 292 292 292 291 291 291 290 290 290 290 289 289 289 289 289 288 288 287 286 287 287 287 288 288 289 289 289 289 289 290 290
321 318 316 317 317 314 313 311 311 310 309 308 305 303 303 303 303 304 303 302 301 300 298 298 297 297 296 296 296 296 296 295 295 295 294 294 294 294 294 294 294 294 293 293 293 293 293 293 293 292 292 292 292 292 292 292 291 292 291 291 290 290 289 289 289 289 289 289 288 288 287 286 286 286 286 287 287 288 288 288 288 288 289 289 289
322 320 319 317 315 313 312 311 310 310 308 306 303 302 303 303 303 303 302 301 300 298 297 297 297 296 296 296 296 295 295 295 295 294 294 294 294 294 294 294 293 293 293 293 292 293 293 293 292 292 292 292 292 292 292 292 291 291 291 291 290 289 289 289 289 289 288 288 288 288 286 285 285 285 286 286 287 287 287 287 288 288 288 288 288
323 322 319 316 313 312 311 310 310 309 306 304 302 302 303 303 302 301 301 300 298 297 297 296 296 296 296 296 296 295 295 294 294 294 293 293 293 293 293 293 293 293 293 292 292 293 293 293 292 292 291 292 292 291 291 292 292 291 290 290 290 289 289 289 288 288 288 288 288 287 286 284 284 284 285 285 286 286 286 287 287 287 287 288 288
323 321 318 314 312 311 310 310 309 307 304 302 302 302 302 302 301 300 299 298 297 297 296 296 296 296 296 296 295 295 294 294 294 293 293 293 293 293 293 293 293 292 292 292 292 292 293 293 292 292 291 291 291 291 290 290 291 291 290 290 290 289 289 288 288 288 288 288 287 286 285 284 284 284 284 284 285 285 286 286 286 286 287 287 288
321 319 316 312 311 310 310 310 308 305 303 301 301 301 301 300 300 299 298 297 297 296 296 297 297 296 296 295 295 294 294 294 293 293 293 293 293 293 293 293 292 292 292 291 291 291 292 292 292 291 291 290 290 290 290 289 289 289 289 290 289 289 289 288 288 288 288 288 287 286 285 284 284 284 284 284 285 285 285 286 286 286 286 287 287
319 317 315 311 310 310 310 309 306 303 302 301 301 301 300 299 298 298 297 296 296 296 297 297 296 296 295 295 294 294 293 293 293 293 293 293 293 293 293 292 292 292 292 291 290 290 290 291 291 291 290 290 290 289 289 289 289 289 289 289 289 289 288 288 288 288 288 288 288 286 285 284 284 284 284 284 285 285 284 285 285 285 285 286 285
318 316 313 310 310 310 309 307 304 302 301 301 301 300 299 298 298 297 296 296 296 296 297 296 296 295 295 294 294 293 293 293 293 293 293 293 293 293 292 292 292 292 291 291 290 290 289 290 291 291 290 290 289 289 288 288 288 288 289 289 289 288 288 288 288 287 288 288 288 286 284 283 284 284 284 284 285 284 284 284 285 285 285 285 285
318 314 310 310 310 309 308 305 302 301 300 300 300 299 298 298 297 296 296 296 296 297 296 296 295 295 294 294 294 293 293 293 293 293 293 292 292 292 292 292 291 291 291 290 290 289 289 289 289 290 289 289 289 289 288 287 287 287 287 288 288 288 288 288 288 287 287 287 287 286 284 283 284 284 284 284 284 284 284 284 285 285 285 285 286
315 311 310 311 310 308 306 303 300 300 300 300 299 298 297 297 296 296 296 296 297 296 296 295 295 294 294 294 293 293 293 292 292 292 292 292 292 292 292 291 291 291 290 290 289 289 289 289 289 289 288 288 288 288 288 287 287 286 285 285 287 288 288 288 288 287 286 287 287 286 285 284 284 284 284 284 284 284 284 285 285 285 285 285 286
311 310 310 310 309 306 303 300 299 299 299 299 298 297 297 296 296 296 296 296 296 295 295 295 294 294 294 293 293 293 292 292 292 292 292 292 292 291 291 291 291 290 290 289 289 289 288 288 288 288 287 287 287 287 287 287 286 286 285 284 286 286 286 287 287 285 284 286 286 285 285 284 284 284 283 284 284 284 284 285 284 284 284 285 286
310 310 310 309 308 305 301 299 299 299 299 298 297 296 296 296 295 296 296 296 295 294 294 294 294 294 293 293 292 292 292 292 292 292 292 291 291 291 291 290 290 290 289 289 288 288 288 287 287 287 287 287 286 286 286 286 285 285 285 285 285 286 285 286 287 285 283 284 284 284 284 283 283 283 283 283 284 284 284 284 284 284 285 285 286
310 310 309 308 305 302 301 299 299 299 298 297 296 296 295 295 295 295 295 295 294 294 294 294 294 293 293 292 292 292 292 292 291 291 291 291 291 291 290 290 290 289 289 288 288 287 287 286 286 286 286 286 286 285 285 285 285 284 285 285 284 284 283 284 286 286 284 283 283 283 284 283 283 283 283 283 283 283 284 284 284 284 285 286 286
310 309 308 305 302 300 299 299 300 299 297 296 296 295 295 295 295 295 294 294 294 294 294 294 293 293 292 292 292 292 291 291 291 291 291 291 290 290 290 289 289 288 288 288 287 287 286 286 286 285 285 285 285 285 284 284 285 285 284 283 282 282 282 282 283 283 283 282 282 282 283 283 282 282 283 283 282 283 284 284 284 285 285 286 287
309 308 305 302 300 299 298 299 299 298 296 296 295 295 295 295 294 294 294 294 294 294 293 293 293 292 292 292 292 291 291 291 291 290 290 290 290 290 289 289 288 288 287 287 287 287 286 286 286 285 285 285 285 284 284 284 284 284 284 283 282 282 282 281 280 280 281 281 280 281 281 282 281 282 282 282 282 283 283 284 284 285 286 287 288
308 306 302 300 299 298 299 299 298 296 295 295 295 295 294 294 294 294 294 294 294 293 293 293 292 292 292 291 291 291 291 290 290 290 290 290 290 289 289 289 288 287 287 287 286 286 286 286 286 285 284 284 284 284 284 283 282 282 282 283 283 283 282 281 280 280 280 280 279 279 280 281 281 281 281 281 282 283 283 284 285 286 287 288 289
307 304 301 299 298 298 299 298 297 296 295 295 294 294 294 294 294 293 293 293 293 293 293 293 293 292 292 291 291 290 290 290 290 290 290 290 290 289 289 288 288 287 287 287 286 286 286 286 285 285 284 283 283 284 284 283 282 281 281 281 281 282 282 282 282 280 279 279 279 279 280 281 281 281 281 281 282 283 283 284 285 286 288 289 290
305 302 300 298 298 299 298 297 296 295 295 294 294 294 294 293 293 293 293 293 293 293 293 293 293 292 292 291 290 290 290 290 290 290 290 289 289 289 288 288 288 287 287 286 286 286 286 285 285 284 284 283 283 284 283 283 283 282 281 280 280 280 281 282 282 281 279 279 279 279 280 281 280 280 281 281 282 283 283 284 285 286 287 288 289
302 300 299 298 298 298 297 296 295 295 294 294 294 294 293 293 293 293 293 293 293 293 293 293 293 292 291 290 290 290 289 289 289 289 289 289 289 288 288 288 287 287 286 286 286 286 286 285 284 284 284 283 284 284 284 284 283 282 282 282 281 280 280 280 281 281 280 279 279 279 280 280 280 280 281 281 282 283 283 284 285 286 287 287 288
300 298 298 298 298 297 296 295 294 294 294 294 293 293 293 293 293 293 293 293 293 292 292 293 293 292 291 290 290 289 289 289 289 289 289 288 288 288 288 287 287 286 286 286 286 286 285 285 284 284 284 284 284 284 284 284 283 282 282 282 281 280 278 277 279 280 280 279 279 279 279 279 280 280 280 281 282 283 283 284 284 285 286 287 287
299 298 297 297 297 296 295 294 294 294 294 293 293 293 293 293 293 293 293 292 292 292 292 293 292 291 290 290 289 289 289 289 289 288 288 288 288 287 287 287 286 286 286 286 286 285 285 285 285 284 284 284 284 284 284 283 283 282 281 281 280 279 277 276 277 278 279 279 278 278 278 279 279 280 280 281 283 283 283 283 284 285 285 285 286
298 298 297 297 296 295 294 294 293 293 293 293 293 292 293 293 293 293 293 292 292 292 293 292 291 290 290 289 289 289 289 288 288 288 288 288 287 287 287 286 286 286 286 285 285 285 285 285 285 285 284 284 284 284 284 283 283 282 281 280 278 276 276 276 275 276 277 278 278 278 278 278 279 279 280 280 281 283 283 283 284 285 285 284 285
Wind_Speed
2 1 1 1 1 2 2 2 2 3 4 4 4 5 5 5 5 6 6 7 7 7 7 8 9 9 9 9 9 11 13 13 15 15 15 16 16 16 16 16 17 19 19 20 20 19 18 18 19 19 18 18 18 19 19 20 21 22 22 23 24 24 25 25 26 27 27 28 29 30 30 30 30 31 31 31 32 32 29 27 28 29 29 29 26
5 4 4 4 4 4 4 4 4 5 5 6 6 6 7 9 9 7 8 10 9 8 10 13 13 12 11 11 12 13 14 15 15 15 15 15 15 15 16 17 18 19 19 19 19 18 18 18 18 19 19 19 19 20 21 21 22 22 23 23 24 24 25 25 25 27 28 28 29 30 31 32 32 32 32 33 33 33 32 30 30 30 30 29 28
8 7 7 7 7 6 6 6 7 8 8 8 9 9 10 10 11 11 11 12 11 9 11 15 17 15 13 12 13 14 15 16 16 16 15 14 14 15 16 17 18 18 18 18 18 17 17 17 18 19 20 21 21 21 22 22 22 22 23 23 23 24 25 25 25 27 28 28 30 31 31 32 32 32 32 32 32 33 33 32 33 34 33 31 31
10 10 10 10 10 10 10 10 10 11 10 10 10 11 12 11 11 12 13 14 13 11 11 15 17 17 16 16 15 14 15 16 17 16 15 13 14 15 16 16 16 16 16 16 16 16 16 17 18 19 20 21 22 21 21 21 22 22 22 22 22 24 25 26 26 27 28 29 30 31 31 31 31 32 31 31 31 32 32 31 32 34 33 32 33
11 11 11 11 12 12 12 13 13 14 13 13 13 13 14 13 13 14 14 15 15 13 12 14 16 16 16 17 15 13 13 14 14 14 13 13 13 14 15 15 14 14 14 14 15 16 17 17 18 19 20 21 21 21 21 21 22 22 23 23 23 24 26 27 27 28 29 30 31 32 31 31 32 32 32 32 32 33 33 32 33 33 33 33 34
11 11 12 12 12 12 13 14 14 14 14 14 15 15 15 16 16 17 16 16 15 14 12 12 13 13 14 14 12 11 11 11 11 12 12 12 13 13 12 12 12 13 13 15 16 17 18 19 19 19 20 21 21 21 22 22 23 23 23 24 25 26 27 28 29 30 31 31 32 33 33 33 33 33 34 34 34 34 35 35 35 34 34 34 34
12 12 12 12 13 13 12 12 12 13 13 14 13 13 14 15 15 15 14 13 13 11 9 9 10 12 13 12 10 10 10 10 11 10 11 12 12 11 11 12 13 14 15 16 17 18 19 19 20 20 20 21 21 22 22 23 24 24 25 26 26 27 28 29 29 30 31 32 32 33 34 34 34 33 34 34 34 35 35 36 36 36 36 36 36
13 12 12 12 12 12 12 10 10 11 12 12 11 11 12 12 12 12 11 10 8 6 6 8 10 12 13 12 11 10 11 11 11 10 11 12 11 11 13 15 15 15 16 18 18 18 18 19 19 20 20 20 21 21 22 23 23 24 26 27 28 28 29 29 29 29 30 31 32 33 34 35 35 35 35 35 35 35 35 35 36 36 36 37 38
14 13 12 11 11 12 13 11 11 11 11 10 9 9 12 12 10 9 10 8 6 6 7 9 11 12 12 12 12 13 13 12 12 12 11 11 11 13 15 15 15 16 17 18 18 17 16 16 17 17 18 17 18 19 20 20 21 22 23 24 25 26 26 26 26 27 28 28 29 30 31 32 33 34 36 36 36 36 36 37 37 37 38 38 39
13 12 12 11 11 12 12 13 13 14 13 12 11 11 12 10 8 8 9 9 8 9 10 10 11 11 12 12 14 15 14 13 13 12 10 11 12 14 15 15 15 16 16 17 17 17 16 15 16 16 16 16 17 17 18 18 19 20 20 21 22 22 23 23 23 24 24 25 25 26 27 27 27 28 29 30 32 33 34 35 36 37 38 39 40
13 13 13 12 12 12 12 13 14 14 14 13 12 12 12 10 7 7 7 8 9 10 10 11 11 13 14 14 16 16 14 14 12 10 10 12 13 13 14 15 15 15 16 16 17 17 17 17 17 17 17 17 18 18 18 18 19 19 20 20 21 21 22 23 23 24 25 25 26 27 27 28 28 28 28 28 28 29 30 30 31 32 34 36 37
15 14 14 14 14 13 12 13 13 14 14 13 12 12 14 11 8 8 8 8 9 9 10 11 13 16 15 14 16 16 14 12 9 10 13 13 13 14 14 14 14 15 16 17 17 18 18 19 19 19 19 19 19 19 19 19 19 20 21 21 22 23 24 25 26 26 27 28 29 30 30 31 32 32 32 32 32 32 32 32 30 31 32 34 35
16 15 14 15 15 13 12 13 13 14 13 13 13 14 15 12 9 8 9 9 8 8 9 11 15 17 15 15 16 16 13 9 9 13 13 12 14 15 15 14 15 16 17 18 18 18 19 20 20 20 20 20 20 20 20 20 21 21 22 23 24 25 26 27 29 30 30 31 32 33 34 35 35 36 36 36 37 37 37 36 34 33 34 35 36
17 17 16 16 15 14 14 13 13 14 13 13 13 14 13 10 7 7 9 9 8 7 9 12 15 16 17 18 17 16 12 10 12 13 11 13 15 14 14 14 15 17 18 18 18 18 19 20 20 20 20 20 21 21 21 22 23 23 24 25 26 27 28 29 31 32 32 33 34 35 36 37 38 39 40 40 41 41 41 41 39 39 40 40 40
16 17 16 16 15 14 14 13 13 13 11 11 12 12 11 8 8 9 9 9 8 9 11 13 14 15 16 17 17 16 13 12 14 12 12 15 15 14 14 15 16 17 18 18 18 18 20 20 20 20 20 20 21 22 22 23 24 25 26 27 28 29 30 31 33 34 34 35 36 38 39 40 41 42 43 43 44 44 45 45 44 45 46 46 46
16 16 16 15 14 14 13 12 12 12 11 10 10 9 7 7 8 8 8 9 10 11 13 13 14 15 13 13 14 13 11 14 15 11 12 14 13 14 15 15 17 17 18 19 19 20 21 21 21 20 20 21 22 23 23 25 26 27 28 29 30 31 33 34 36 37 38 39 41 42 43 44 45 46 47 48 47 48 49 49 49 49 49 49 50
17 16 15 14 13 14 13 13 13 13 13 12 11 7 6 6 6 7 9 11 12 13 15 15 15 15 13 11 9 8 9 15 16 12 12 12 11 13 13 15 17 17 19 19 19 21 22 21 20 19 20 21 22 23 25 26 28 30 31 32 33 35 36 38 39 40 41 43 44 46 47 48 49 50 51 52 52 53 54 54 55 55 55 54 52
17 17 16 13 12 14 14 15 16 14 13 14 12 9 8 9 10 11 12 12 13 14 16 17 16 14 12 10 8 8 10 14 15 14 15 14 12 12 12 15 17 18 19 19 20 22 22 21 19 19 20 22 23 24 26 28 30 32 33 35 36 38 39 40 41 42 43 44 46 47 49 50 51 52 54 54 55 56 57 58 58 59 60 58 55
17 17 18 15 14 17 16 15 15 13 13 15 14 11 11 11 12 13 13 13 14 14 15 16 14 11 8 7 7 8 10 12 13 15 17 18 16 14 16 18 20 21 20 20 22 22 21 20 19 19 21 22 23 25 26 29 31 33 34 35 36 37 38 39 40 42 43 45 46 48 49 50 52 53 54 55 56 58 58 59 60 60 61 61 60
18 19 19 17 18 19 16 14 14 13 14 15 14 13 12 11 11 12 12 13 14 13 11 9 7 5 5 6 6 8 9 10 12 14 17 21 21 21 22 23 23 23 23 23 23 23 22 19 20 22 23 23 24 25 27 29 31 32 33 34 36 37 38 39 41 42 44 45 46 48 49 50 52 53 54 55 56 57 58 59 60 60 60 61 60
20 20 19 19 20 18 14 16 18 17 16 16 16 14 14 13 12 12 12 11 10 8 5 2 1 2 4 5 6 7 9 10 12 14 17 21 24 26 28 28 26 24 25 25 25 24 21 20 22 24 25 25 26 27 29 31 33 34 35 37 38 39 40 41 43 44 45 47 48 49 50 51 52 53 54 55 55 56 57 58 58 59 59 59 59
20 20 19 18 19 17 16 18 20 19 18 17 16 15 15 14 12 11 10 8 5 3 2 1 2 3 4 5 7 8 9 10 12 15 18 20 24 28 30 31 31 28 27 28 27 25 22 22 25 26 27 28 29 31 33 34 36 38 39 40 41 42 43 44 45 47 48 49 51 52 53 54 54 55 55 55 55 55 56 56 56 56 57 57 58
20 20 20 19 19 19 20 22 22 22 19 15 14 13 13 12 10 8 6 5 4 3 2 2 2 4 5 7 8 8 9 11 13 16 19 21 25 28 29 30 32 31 30 30 29 27 24 25 27 29 30 31 32 34 37 38 40 41 42 42 43 44 45 46 48 49 51 52 53 55 55 56 56 56 56 56 56 55 55 54 54 54 53 53 53
22 21 21 21 20 19 20 22 23 21 17 14 12 11 10 9 8 7 6 6 4 3 2 2 4 5 6 7 8 9 10 12 14 17 19 21 24 27 29 31 32 33 32 31 31 29 27 27 29 31 32 33 34 38 40 41 42 43 45 45 46 47 48 49 51 52 53 54 55 56 56 57 57 57 57 56 55 54 51 50 49 49 49 49 51
23 23 22 20 19 19 18 18 18 15 14 13 11 10 10 9 8 8 7 5 4 2 2 3 4 6 6 7 8 9 12 13 15 17 19 21 23 26 29 31 33 34 33 33 32 30 29 30 31 33 35 35 37 40 41 43 44 45 46 47 48 49 50 52 53 53 54 55 56 56 56 57 57 57 55 53 50 48 46 46 46 47 48 49 51
24 23 22 20 20 19 16 15 14 13 13 13 13 12 11 10 9 8 6 5 3 1 1 3 5 5 6 7 9 11 12 14 16 17 19 20 23 26 29 31 33 34 34 34 34 32 32 32 33 35 36 38 40 41 42 44 46 47 48 49 50 51 52 54 55 55 55 55 56 57 57 58 57 55 52 47 45 44 44 44 45 46 47 48 49
23 23 22 21 20 17 15 14 13 14 15 15 14 13 11 10 9 7 6 4 2 0 2 3 4 5 6 8 10 11 13 15 16 17 19 20 22 24 27 31 34 37 37 35 34 35 35 34 35 37 38 40 42 43 44 45 47 48 50 51 52 53 54 55 56 55 55 55 56 57 58 58 56 53 49 46 45 44 44 44 45 45 46 47 47
22 22 21 19 18 16 14 13 13 15 16 15 14 13 11 10 9 7 5 3 1 1 2 3 4 5 7 8 10 12 13 15 16 17 19 20 21 22 24 27 31 36 39 38 37 37 36 37 39 40 40 43 45 45 47 47 48 50 51 52 54 56 56 56 56 55 55 56 56 57 58 57 55 51 48 46 45 45 45 45 45 45 46 46 47
21 23 21 19 19 16 14 14 15 17 16 16 14 13 12 10 8 7 4 3 1 1 2 3 5 6 8 9 11 12 13 15 16 17 19 19 20 21 22 25 27 31 35 39 41 38 37 39 41 42 44 44 46 47 48 48 50 51 52 53 55 56 56 56 55 55 55 56 56 57 57 56 52 47 45 44 44 44 44 44 45 45 46 47 48
21 22 22 22 21 17 15 16 17 18 17 15 14 13 12 10 8 6 4 2 1 2 2 4 5 6 8 9 11 12 14 15 16 17 18 18 19 20 21 24 26 29 31 36 41 38 38 41 41 42 45 46 47 48 48 48 50 51 53 54 54 55 56 55 55 55 55 56 56 56 56 54 49 44 43 43 43 43 43 43 44 45 46 47 48
21 21 21 22 20 17 16 18 19 19 17 16 15 13 11 9 7 5 4 3 2 2 3 4 5 6 8 9 11 13 14 15 16 17 17 18 19 20 21 23 25 28 30 33 38 40 39 41 42 42 44 46 47 48 49 49 50 51 53 54 54 54 54 55 55 55 56 56 56 55 54 51 45 42 41 41 42 42 42 43 44 45 46 48 48
23 22 21 20 18 17 18 20 21 19 18 16 15 12 10 9 7 6 5 3 2 2 3 4 5 7 8 10 12 13 14 15 15 16 17 18 19 20 22 24 25 28 30 32 37 42 41 40 42 43 44 45 46 46 49 50 50 51 52 53 54 54 55 56 57 56 56 57 57 55 53 48 43 41 40 40 41 42 43 44 45 45 46 47 48
26 24 23 20 18 19 21 22 21 19 18 16 14 12 10 9 8 7 5 3 3 3 3 5 6 7 9 10 12 13 14 14 15 16 17 17 19 21 22 24 25 27 30 32 36 43 44 41 42 43 43 44 45 46 48 50 52 52 53 54 54 55 56 57 57 57 57 57 57 55 52 47 44 43 43 42 42 42 43 45 45 44 44 46 47
28 26 23 20 20 21 23 23 21 20 18 15 13 12 11 10 8 7 5 4 3 3 3 5 7 8 10 11 12 13 13 14 15 16 17 18 19 21 22 24 25 26 29 32 35 40 45 44 43 43 43 44 45 45 47 49 51 53 54 55 55 56 57 57 58 59 58 57 56 54 50 46 45 45 44 44 45 44 44 45 43 43 43 44 45
29 26 22 21 22 23 24 23 21 20 17 15 14 13 12 10 9 7 6 5 3 3 4 6 8 9 10 11 12 13 14 15 16 16 17 19 20 21 23 24 25 27 28 31 34 37 42 45 44 43 44 44 44 45 46 48 50 52 54 55 56 57 58 58 59 61 60 59 56 53 50 47 46 45 45 45 45 45 45 45 44 43 43 44 45
27 24 23 23 24 25 25 23 21 19 17 16 15 14 12 11 9 8 6 4 3 4 5 7 9 10 10 11 12 13 14 15 16 17 18 19 20 22 23 25 26 28 29 30 32 35 39 43 44 43 43 44 45 45 46 48 50 51 53 55 57 59 59 59 60 61 61 60 57 53 50 48 47 46 45 45 45 45 46 46 45 45 45 46 47
25 24 24 25 26 26 24 23 21 19 18 17 15 14 13 11 10 8 6 4 4 5 6 8 9 10 10 11 13 13 15 16 16 18 19 20 21 23 24 26 27 28 30 31 32 34 36 39 42 42 42 43 45 45 46 48 51 52 54 56 58 60 62 62 61 60 60 61 60 57 53 49 48 47 46 46 45 45 46 48 48 47 48 49 50
25 26 26 27 27 26 24 23 21 20 19 17 16 14 13 12 10 8 6 6 5 6 7 8 9 10 11 12 13 14 15 16 17 18 19 20 22 24 25 26 28 29 30 31 32 33 34 37 39 41 42 43 45 46 46 47 50 52 54 58 60 60 61 63 63 62 62 62 61 59 55 51 49 47 47 47 47 47 49 50 50 49 50 52 53
27 27 28 29 28 26 25 23 22 20 19 17 16 15 14 12 10 8 7 6 6 7 8 8 9 10 12 13 14 15 16 17 18 19 20 21 22 24 25 27 28 29 30 31 32 33 35 36 38 39 42 42 44 46 47 47 49 50 52 55 60 61 61 63 63 62 62 62 60 59 57 53 49 47 47 48 48 49 51 51 51 51 51 53 54
28 28 29 30 28 27 25 24 22 21 19 17 16 15 14 11 10 9 7 6 6 7 8 8 10 11 13 14 15 16 17 18 19 20 21 22 23 24 25 27 29 30 30 31 32 33 34 36 37 39 41 42 43 45 47 48 50 51 51 52 57 60 60 61 62 60 60 61 61 60 59 56 51 48 49 49 48 49 51 52 52 53 54 55 54
29 29 30 29 28 28 26 24 22 21 19 18 17 15 13 11 10 9 7 6 6 7 8 9 10 12 13 14 15 17 18 19 20 21 22 23 24 25 26 27 29 30 31 31 32 33 34 35 36 38 40 41 42 43 46 47 47 50 51 52 55 58 58 60 61 58 55 58 60 61 60 57 52 50 51 50 49 49 50 51 53 55 56 55 53
30 31 30 30 28 27 25 24 23 21 20 19 17 15 13 12 10 8 7 6 7 7 8 9 11 12 13 15 16 17 19 20 21 22 22 23 24 26 26 27 28 30 31 31 31 32 33 34 34 36 38 40 40 40 43 45 45 47 49 51 53 54 55 57 60 57 53 55 59 60 58 54 51 50 48 48 50 51 49 50 53 55 55 53 51
32 32 31 30 28 26 25 23 22 21 20 19 17 15 14 12 9 8 7 7 7 7 8 10 11 12 14 15 17 18 19 20 21 22 22 24 25 25 26 26 27 28 29 30 31 31 32 33 33 33 35 38 38 38 40 43 45 46 47 47 47 50 52 53 54 53 52 52 54 56 55 52 47 44 43 46 51 52 49 49 51 52 52 50 47
33 33 31 30 28 26 25 23 22 21 20 18 17 15 13 11 9 8 7 6 7 7 9 10 11 13 14 16 17 19 20 21 21 22 23 24 24 25 25 26 26 26 27 28 29 30 31 32 33 32 31 34 37 37 37 40 42 44 45 44 45 47 49 49 48 48 49 49 48 49 52 50 43 39 43 49 52 51 48 47 49 49 49 48 44
33 33 31 29 28 26 25 24 23 21 20 18 17 15 13 11 9 8 7 6 7 8 9 10 12 13 15 17 18 19 20 21 22 22 23 23 24 24 25 25 24 24 25 26 26 28 29 29 31 31 29 31 34 35 35 36 38 39 41 42 44 45 47 48 48 47 46 43 40 42 47 46 40 40 47 51 51 49 46 45 46 45 44 44 37
34 33 31 30 28 27 25 24 23 22 20 18 17 15 12 10 9 7 6 6 7 8 9 11 13 15 17 18 19 20 20 21 22 23 23 24 24 24 24 24 24 24 25 26 26 26 27 27 29 30 29 28 31 33 34 33 33 34 35 37 41 42 43 45 46 43 40 37 34 36 40 42 42 43 46 49 50 48 44 42 41 40 39 36 24
34 32 31 30 29 27 26 24 23 22 20 18 16 14 12 10 8 7 6 6 7 8 10 12 14 16 18 19 20 20 20 21 22 23 23 24 24 24 24 24 24 25 25 26 26 26 28 28 28 29 28 27 29 31 32 33 32 33 33 34 35 36 38 41 44 43 39 36 34 33 35 40 42 42 43 47 49 46 42 40 37 35 34 28 17
34 32 31 30 28 27 26 25 23 22 20 18 16 13 12 10 8 7 6 6 7 9 11 13 15 17 19 20 20 20 20 21 22 22 23 23 23 24 24 24 25 25 25 26 26 27 28 27 27 27 26 26 27 29 31 33 33 32 33 34 33 32 34 38 43 44 41 37 34 31 34 38 39 40 44 47 46 43 40 38 33 28 29 26 18
34 33 31 30 28 27 26 25 23 22 20 18 15 13 11 9 8 7 6 6 8 10 11 14 16 18 20 20 20 20 20 21 21 22 23 23 23 23 24 25 25 26 26 26 27 27 27 26 26 26 25 25 27 29 31 31 31 31 32 34 33 31 31 33 38 41 41 37 32 30 35 38 38 41 45 45 43 39 37 37 29 20 21 23 19
34 33 32 30 29 28 26 24 23 22 20 17 15 13 11 9 7 6 6 7 9 11 13 15 17 19 20 20 20 20 20 21 21 22 22 22 22 23 24 25 26 26 27 27 28 28 27 27 26 25 25 26 27 29 30 30 31 30 30 31 29 27 28 29 32 36 39 37 32 31 36 37 37 41 43 43 42 36 34 34 26 15 13 16 16
34 33 32 31 30 28 27 25 24 22 20 17 15 13 11 9 7 6 7 8 10 12 14 16 18 19 19 19 20 20 20 21 21 21 21 21 22 22 23 25 26 26 27 28 29 30 29 29 29 28 28 27 28 29 30 30 31 30 29 27 25 23 24 26 28 31 35 36 33 32 34 35 37 38 37 38 39 37 34 32 24 16 11 9 11
Wind_Direction
232 235 255 267 290 304 308 314 318 310 305 302 301 302 297 290 286 288 293 292 291 302 307 303 300 302 305 304 310 315 315 320 326 326 327 328 329 330 330 328 328 328 328 327 325 323 321 321 322 322 320 316 311 309 308 307 306 306 305 305 304 305 305 304 305 304 302 302 302 301 298 296 294 291 292 294 293 290 287 284 284 286 288 289 287
247 249 252 259 265 270 277 286 290 289 289 292 291 289 288 288 290 292 292 295 305 319 315 308 309 312 310 307 311 317 322 325 324 322 323 325 327 328 328 326 325 324 323 323 323 322 321 319 317 317 315 311 308 306 305 304 304 303 302 302 303 303 302 302 302 301 301 300 299 300 300 300 300 297 295 296 295 291 286 283 285 287 285 284 285
250 253 255 258 259 259 262 265 268 270 272 276 278 280 286 293 300 305 303 306 315 316 309 308 315 323 325 322 318 318 322 323 328 331 327 323 323 325 326 326 325 324 323 323 324 325 323 321 318 315 313 310 308 305 303 301 301 300 300 301 301 300 298 299 300 300 301 300 299 301 301 302 301 300 298 297 295 293 289 285 287 288 281 279 282
252 255 257 258 258 259 259 259 259 262 264 265 268 274 281 287 293 299 301 303 304 303 306 309 316 326 328 324 318 315 319 324 333 337 332 327 325 325 324 323 324 324 324 325 326 325 323 321 318 314 312 311 309 306 303 300 299 299 300 301 301 299 298 299 301 302 302 301 301 302 302 302 302 302 302 301 299 298 297 294 293 292 285 283 283
253 256 258 258 257 257 257 259 261 263 265 265 266 269 273 278 281 284 287 291 298 302 306 308 315 325 326 325 327 328 329 332 338 340 341 339 332 328 325 323 326 326 325 325 322 320 318 316 314 313 312 312 311 308 306 303 302 303 303 303 302 301 300 301 302 302 303 302 302 303 303 302 301 302 302 302 302 300 301 300 297 296 294 291 289
250 255 259 260 259 261 265 269 270 271 274 276 277 282 285 286 284 283 284 290 300 304 306 316 328 337 339 343 349 348 347 349 349 349 349 347 341 338 336 335 333 328 324 320 318 317 314 313 312 314 315 314 312 309 307 306 305 307 307 306 305 303 302 302 301 302 302 301 301 301 301 301 301 301 300 299 300 299 299 299 298 298 297 295 292
249 254 263 267 268 270 273 280 287 291 293 294 298 305 306 302 297 294 297 301 306 313 325 339 351 359 3 4 2 359 357 354 351 349 348 347 344 341 338 335 331 327 325 323 323 322 320 318 317 317 318 318 315 312 310 308 306 306 305 305 305 305 304 304 304 304 303 302 301 300 299 300 301 301 300 298 297 296 296 296 296 297 296 294 294
250 255 264 271 279 282 281 289 307 313 310 310 314 321 325 325 320 314 317 317 317 338 356 350 356 5 9 6 357 351 348 347 345 340 339 342 340 333 330 329 332 334 333 331 331 331 331 327 324 322 323 323 321 319 317 314 312 310 309 308 308 308 309 309 309 309 308 307 305 304 302 301 301 300 299 297 296 294 293 293 292 293 293 292 293
250 256 260 265 274 279 283 293 309 313 310 311 312 324 337 342 342 336 337 340 340 349 352 347 349 356 0 358 349 341 338 343 344 335 333 338 336 331 333 338 343 341 339 341 343 346 345 340 336 335 335 334 330 329 329 328 327 325 323 323 323 323 323 323 322 320 318 317 315 313 311 307 305 303 300 299 297 295 294 292 291 290 290 290 290
254 261 267 271 270 271 280 290 296 300 304 307 311 325 337 341 347 353 353 352 345 340 338 335 337 342 344 342 338 333 335 342 342 339 338 339 337 338 345 351 351 348 350 354 356 358 359 358 356 356 355 352 350 349 348 347 346 346 346 345 345 344 343 342 340 337 335 332 330 327 325 322 318 314 312 308 304 301 299 296 294 292 290 290 290
256 263 269 273 273 273 276 279 285 292 300 306 312 316 317 321 331 340 344 340 334 329 324 325 328 330 327 323 324 328 335 341 345 353 348 342 348 355 359 360 0 3 4 3 4 6 7 7 6 5 6 4 4 3 2 2 2 3 2 1 358 355 353 351 348 346 343 340 337 335 333 331 329 327 323 320 316 311 307 304 302 300 297 295 293
254 258 261 261 265 269 267 268 277 285 291 299 305 303 298 300 305 308 313 314 313 309 309 318 321 317 315 314 319 328 339 343 353 3 353 356 10 11 7 10 14 13 8 7 9 10 8 7 6 6 6 8 9 8 8 9 8 6 4 0 358 355 353 352 350 347 345 343 341 339 337 335 334 333 330 328 325 321 317 314 309 305 301 298 296
251 251 254 257 262 268 267 269 276 280 284 291 295 293 291 294 296 301 305 302 299 301 304 311 313 312 317 324 326 334 347 355 6 6 2 15 21 13 11 16 16 11 7 7 8 8 7 6 6 5 6 7 7 7 7 7 6 3 1 358 356 355 353 352 350 348 346 345 342 341 340 338 336 334 333 331 329 326 324 321 317 309 305 302 298
253 253 254 255 256 261 265 269 274 279 281 284 287 287 286 285 286 298 304 298 293 301 302 303 307 312 322 329 331 341 356 6 7 7 14 24 19 12 13 13 10 7 3 3 5 6 6 5 5 4 4 4 3 3 4 4 4 2 360 358 356 354 352 351 349 348 345 343 342 340 338 336 335 333 331 329 327 325 323 322 318 313 312 309 304
253 255 253 250 252 257 259 262 267 270 272 280 289 286 275 261 265 286 296 294 298 304 300 300 305 309 318 324 330 342 354 359 4 11 19 19 14 7 5 5 6 3 359 1 3 4 4 4 3 2 2 2 2 3 3 3 2 360 358 356 354 353 351 349 347 345 343 341 339 337 335 333 331 329 328 326 324 322 320 319 316 313 313 310 308
250 252 253 253 258 259 256 258 263 268 273 286 294 278 252 245 260 279 289 294 301 303 302 302 302 305 315 320 327 339 341 343 354 9 17 15 8 359 356 358 360 359 357 358 360 1 2 2 0 360 1 2 1 2 2 1 358 356 355 354 352 350 348 346 344 342 340 338 336 334 332 330 328 326 325 323 321 320 318 316 314 312 311 309 307
253 252 255 258 261 258 255 253 256 268 275 279 282 267 244 252 271 282 289 293 292 295 304 307 304 307 314 315 320 327 321 329 339 351 4 6 0 356 354 353 354 356 355 355 357 358 359 359 360 0 1 1 360 360 359 357 355 353 352 351 349 347 345 344 342 340 337 335 333 331 329 328 326 324 323 322 320 318 317 315 314 313 311 310 307
252 247 247 253 262 261 255 248 245 253 261 262 264 266 263 264 275 278 279 285 284 288 302 309 310 313 317 315 317 312 310 320 324 327 340 351 356 356 354 354 354 356 355 353 353 354 356 357 359 1 1 359 357 357 356 354 352 350 349 347 345 344 342 340 338 336 333 331 329 327 326 324 323 321 320 319 317 315 314 313 312 311 309 308 306
252 245 240 242 253 256 252 250 246 240 245 251 254 264 269 265 270 271 267 272 276 283 296 304 309 317 330 332 328 321 319 321 317 318 328 339 350 354 353 355 356 355 355 353 352 353 357 359 360 1 0 357 355 354 353 350 348 346 344 343 341 340 337 335 332 330 328 327 325 323 322 320 319 318 316 315 314 313 311 310 309 308 307 306 304
252 249 242 235 238 244 250 258 254 245 245 247 251 262 264 256 256 256 258 266 274 283 292 298 305 326 353 353 341 335 332 328 326 329 330 332 342 349 349 350 354 353 352 354 355 355 359 4 3 2 1 358 354 352 350 348 344 341 339 338 337 334 332 330 328 326 325 323 321 320 319 318 317 315 314 313 312 311 309 308 307 306 305 304 302
251 252 248 238 232 235 242 245 243 246 250 247 248 250 248 249 252 253 263 272 274 277 277 272 349 7 3 356 349 343 338 335 333 336 336 334 339 345 344 343 346 350 350 352 355 356 2 7 4 0 359 356 352 350 349 345 340 337 335 335 334 331 329 327 326 325 323 322 321 320 319 318 317 316 315 314 312 311 309 307 306 304 302 301 299
250 252 252 244 235 231 229 230 235 245 251 244 239 239 245 257 263 261 265 265 252 222 179 125 60 23 358 347 345 340 336 336 335 339 342 340 338 341 341 339 340 346 349 349 351 354 360 4 1 358 355 352 350 348 345 342 338 335 334 334 332 330 329 327 327 326 325 325 324 324 323 322 321 320 318 316 315 312 310 308 305 303 301 299 297
248 251 251 248 245 238 230 232 238 243 246 241 238 244 251 256 252 242 230 209 184 155 125 69 28 4 350 342 338 337 337 339 342 343 343 341 337 336 337 336 336 342 344 344 346 349 355 359 357 353 351 348 346 344 342 340 337 334 333 332 331 330 330 329 329 329 328 328 327 327 326 326 324 323 322 320 318 315 312 309 306 304 302 300 299
245 246 247 250 251 245 239 237 238 238 239 240 242 244 237 224 210 195 180 165 148 124 80 27 4 350 343 339 336 339 343 345 346 345 343 340 336 334 335 335 335 337 338 339 342 345 351 355 353 349 347 346 344 343 341 338 335 333 332 333 333 332 332 332 332 331 330 330 330 329 329 328 328 327 325 323 320 318 314 312 309 308 306 304 302
242 242 247 251 250 249 246 238 232 230 231 232 230 220 204 192 183 173 162 150 137 107 42 359 349 342 337 338 342 345 346 346 345 343 340 338 336 335 335 335 333 333 335 337 339 343 346 350 350 346 344 343 342 340 338 335 333 332 333 333 333 333 333 333 333 333 333 333 333 333 332 332 331 329 326 323 320 317 314 312 310 309 307 305 302
241 241 243 245 245 244 237 224 218 218 218 216 208 197 189 182 174 165 156 147 139 104 1 341 338 337 339 344 346 346 344 342 341 339 338 337 337 336 334 332 329 330 333 335 337 340 342 344 345 343 341 341 339 337 335 334 333 332 333 334 334 335 335 336 337 337 338 337 337 336 335 334 332 329 326 322 319 316 314 312 311 309 308 305 303
241 240 240 241 242 235 218 208 206 204 203 199 192 187 182 177 169 162 159 159 155 125 326 332 336 338 346 347 343 342 340 339 338 337 337 337 338 337 334 333 331 330 333 334 335 337 338 339 342 341 340 339 336 336 336 336 335 335 336 337 337 338 339 339 340 340 339 339 338 337 335 333 331 329 326 323 320 318 316 314 312 311 310 307 306
237 234 235 239 240 227 207 203 199 195 194 190 186 183 178 173 167 166 168 172 183 306 317 329 341 344 345 342 339 339 336 336 336 335 336 336 335 336 334 335 334 332 332 331 331 334 335 336 340 339 338 337 336 337 338 337 337 337 338 339 339 340 340 341 341 340 339 338 338 337 335 333 331 330 327 324 321 319 317 316 315 313 311 310 308
229 227 229 233 234 223 205 200 195 191 192 187 184 181 176 172 170 173 181 188 226 299 316 333 343 342 340 337 335 335 333 334 334 333 334 333 332 333 332 334 335 333 332 328 326 330 333 335 338 337 335 336 336 336 337 337 337 337 338 340 340 339 340 341 340 339 339 338 338 336 334 334 333 331 328 325 322 320 319 318 316 314 313 312 310
229 226 224 224 225 217 201 198 194 191 192 188 183 179 176 176 177 181 196 205 236 288 315 333 337 336 335 333 331 331 331 331 332 331 330 329 328 330 331 332 332 331 330 326 323 325 330 333 335 335 334 335 336 335 336 337 336 337 338 339 339 339 339 339 339 339 339 339 338 337 335 336 335 332 329 326 324 323 321 320 318 317 315 313 312
230 230 227 221 216 207 197 196 194 192 192 187 182 181 178 180 184 191 206 211 240 285 310 323 329 331 331 329 328 329 329 328 328 327 326 325 326 327 330 330 330 328 327 325 321 322 327 331 332 334 334 334 335 335 334 335 336 336 337 338 339 339 339 339 339 339 340 340 338 337 338 338 336 332 330 328 327 325 324 322 321 319 318 317 315
227 229 230 220 206 199 197 196 194 193 191 186 183 183 183 186 192 201 210 215 247 279 301 316 324 328 327 326 325 325 324 324 324 323 322 323 324 326 328 328 327 326 325 325 322 320 325 330 331 332 334 333 334 334 332 333 335 336 337 338 339 339 340 340 340 340 341 340 338 337 339 340 338 335 333 330 328 327 325 324 322 321 320 319 318
223 227 226 213 199 197 197 195 194 193 190 187 186 187 188 194 198 202 212 222 244 270 296 313 321 323 322 322 320 319 320 320 320 319 320 322 322 324 325 325 326 325 325 325 323 321 324 329 332 332 333 333 334 335 334 332 333 336 337 339 339 340 341 341 340 341 341 340 338 338 339 341 340 339 338 335 332 330 328 326 324 323 322 321 321
222 225 220 205 197 198 196 195 194 191 190 189 189 192 194 200 203 205 214 223 238 266 294 310 316 317 317 316 315 316 317 317 317 318 319 321 321 322 323 323 325 325 325 326 325 324 324 328 331 332 333 335 335 336 337 336 336 336 337 339 339 340 341 341 341 341 341 340 339 338 339 340 340 339 339 337 334 333 331 329 327 326 325 324 323
222 221 212 201 198 197 194 195 194 191 191 190 192 197 198 201 206 209 215 221 237 269 293 306 311 311 312 313 313 315 315 316 317 317 318 320 320 321 322 323 324 325 327 327 326 326 325 327 330 333 333 335 337 339 340 339 339 339 338 338 338 339 341 341 341 341 341 340 338 337 337 339 340 339 337 336 334 332 332 331 330 328 326 324 324
218 211 205 200 199 196 194 195 194 192 193 194 196 200 200 203 207 210 215 224 244 273 291 301 306 306 308 311 312 314 314 315 317 317 319 320 320 321 322 323 324 326 328 329 328 328 327 327 329 332 334 335 338 341 341 339 339 340 339 339 340 341 342 342 342 341 340 339 338 337 337 338 339 338 337 337 334 332 333 333 332 331 329 326 326
210 206 204 199 196 196 195 195 195 194 195 197 201 202 203 206 208 210 217 228 245 271 289 296 301 304 307 310 311 313 314 315 316 317 318 319 320 321 322 323 325 327 329 330 329 329 329 329 329 331 335 337 338 341 342 341 339 340 340 341 341 343 342 341 341 340 340 340 339 338 335 335 337 336 336 338 336 333 334 334 334 334 333 331 330
207 205 202 197 195 195 195 196 196 196 197 199 202 204 206 208 208 210 217 229 249 273 288 294 299 304 308 310 312 314 315 315 315 316 318 319 320 321 322 324 326 328 330 330 330 330 330 331 332 333 336 339 340 341 343 343 341 342 342 341 342 343 341 339 340 341 341 340 339 337 333 332 335 335 335 337 337 335 335 337 338 337 335 335 332
206 203 200 197 195 194 196 196 196 198 200 202 204 206 208 208 209 213 220 235 260 277 286 294 300 306 310 312 313 315 314 314 315 317 319 320 321 322 324 326 328 329 330 330 331 332 332 334 337 338 339 342 343 342 343 343 343 344 343 340 340 341 340 339 341 341 340 339 337 334 331 331 332 332 332 334 335 336 337 339 340 338 337 336 335
204 202 200 197 194 194 196 196 196 199 201 204 207 209 208 208 210 216 227 244 265 277 286 297 303 308 312 313 314 314 314 316 318 320 321 321 322 324 326 328 329 330 331 332 333 335 336 338 340 342 342 343 344 343 343 344 344 343 343 339 337 338 338 339 341 338 336 337 335 332 331 332 332 331 331 332 332 334 337 339 340 339 337 336 336
201 199 198 198 198 198 196 196 198 200 203 207 209 208 207 209 213 221 235 252 267 278 289 299 306 310 313 314 315 315 317 319 321 322 323 323 324 326 329 330 331 331 333 335 337 338 340 341 343 344 343 343 344 344 344 345 343 341 341 339 337 336 336 336 338 337 334 334 334 331 331 333 332 331 331 331 331 333 335 337 339 339 337 336 336
198 196 197 199 200 200 199 198 200 203 206 208 207 207 208 211 217 226 240 255 268 282 294 302 308 311 313 315 316 318 320 321 322 323 323 324 326 328 330 331 333 335 335 337 339 341 342 342 343 344 342 341 344 345 344 343 341 339 339 338 335 334 333 331 333 336 336 334 332 330 330 333 334 333 333 332 331 332 335 336 338 339 337 336 336
196 196 199 200 199 200 201 202 204 207 208 207 206 208 210 212 219 228 241 257 270 286 298 305 310 312 315 317 318 320 321 321 322 323 324 326 327 328 331 334 336 337 338 339 341 342 342 341 341 343 342 340 343 345 343 340 340 339 338 336 332 330 329 327 328 331 334 333 331 329 329 334 338 337 333 329 330 334 336 336 338 340 338 336 337
197 198 200 201 200 200 201 204 208 209 208 207 208 210 212 214 221 229 242 259 275 290 300 306 311 314 317 319 320 321 321 321 321 322 324 326 326 328 331 334 337 338 339 340 341 342 342 339 338 342 343 341 343 344 342 339 339 338 337 334 330 328 327 325 322 323 327 332 334 331 329 336 341 336 329 328 332 337 338 338 342 344 339 336 338
199 200 200 201 201 202 204 207 209 209 208 208 209 211 213 216 222 232 246 264 279 293 303 310 315 318 320 320 321 320 320 320 321 322 324 325 326 328 332 334 337 338 339 341 343 341 339 337 336 341 346 344 342 342 341 339 336 334 333 332 331 330 327 324 320 320 327 336 336 327 327 335 338 332 328 331 335 340 341 343 347 347 343 342 343
202 202 202 202 203 205 208 209 211 210 208 208 210 212 214 218 225 236 252 269 286 299 308 314 319 321 321 320 319 319 319 319 321 322 323 325 326 329 332 333 335 338 340 343 343 339 337 337 339 343 347 345 340 340 342 339 334 331 330 328 327 326 323 320 320 323 331 340 338 327 326 331 333 331 330 333 337 341 344 348 351 354 357 358 2
205 205 204 205 206 207 210 211 211 211 210 209 210 212 216 221 229 241 257 276 293 304 311 317 321 320 319 318 318 318 318 320 322 322 323 325 327 329 331 332 335 340 342 343 341 338 339 342 343 344 345 344 341 341 342 340 336 332 329 325 322 320 318 319 323 329 334 341 344 336 326 327 331 331 329 332 338 341 346 353 355 1 17 27 44
206 206 206 207 209 211 212 212 211 212 212 210 210 214 219 224 233 246 263 284 298 307 314 319 320 318 317 317 316 317 319 321 322 322 324 326 328 329 331 334 338 342 344 342 341 341 343 344 343 342 342 341 341 341 342 341 338 334 329 327 325 323 322 324 327 331 333 340 349 342 327 327 331 329 327 332 338 340 346 355 357 5 28 45 62
207 207 207 208 211 213 215 214 213 214 214 211 211 215 221 227 238 253 272 291 300 310 317 319 319 316 315 314 315 317 320 321 322 323 324 326 328 329 332 335 339 343 344 342 342 343 343 342 342 341 339 338 339 341 343 343 340 335 331 331 331 330 329 328 328 329 330 338 347 341 330 328 329 327 327 332 338 341 346 354 358 10 32 46 59
209 209 209 211 212 213 214 215 215 216 215 213 212 215 221 231 244 261 282 297 306 314 317 317 315 312 311 312 315 318 320 321 322 323 324 326 328 331 333 337 341 343 343 342 342 342 342 341 340 338 336 337 340 344 346 345 341 338 335 333 333 333 331 329 329 327 328 335 341 339 332 328 327 329 330 332 337 342 345 349 355 11 34 50 63
212 211 212 213 214 214 213 214 215 216 216 215 214 216 223 235 250 271 290 302 310 314 313 312 310 309 310 312 315 318 320 320 321 322 324 326 329 332 335 339 342 342 342 343 342 341 341 340 338 337 336 338 342 345 347 346 343 341 339 336 336 336 332 329 330 327 325 329 336 338 332 327 327 331 333 334 335 337 341 345 352 2 18 66 89